Location: CAS DS-2
(40.5268°N, 76.2220°W)
Time: 11:54:31
(UTC-05:00)

N. Korean satellite - Visible Passes

Search period start: 02 December 2020 00:00
Search period end: 12 December 2020 00:00
Orbit: 453 x 503 km, 97.2° (Epoch: 01 December)

Date Brightness Start Highest point End Pass type
(mag) Time Alt. Az. Time Alt. Az. Time Alt. Az.
02 Dec 8.7 05:00:34 10° NE 05:03:46 28° E 05:06:58 10° SSE visible
02 Dec 8.1 06:34:26 10° NNW 06:36:52 17° WNW 06:39:19 10° WSW visible
02 Dec 7.8 17:08:06 10° S 17:11:22 44° W 17:14:43 10° NNW visible
03 Dec 9.8 04:35:19 10° ENE 04:37:17 14° E 04:39:14 10° SE visible
03 Dec 7.2 06:07:22 10° N 06:10:43 35° WNW 06:14:04 10° SW visible
04 Dec 6.5 05:40:49 10° N 05:44:27 79° WNW 05:48:07 10° SSW visible
04 Dec 9.9 17:50:31 10° WSW 17:52:13 13° W 17:53:55 10° WNW visible
05 Dec 7.8 05:14:35 10° NNE 05:18:06 44° E 05:21:38 10° S visible
05 Dec 8.8 17:22:41 10° SSW 17:25:41 28° W 17:28:43 10° NW visible
06 Dec 9.3 04:48:49 10° NE 04:51:39 21° E 04:54:28 10° SE visible
06 Dec 7.7 06:21:56 10° NNW 06:24:54 24° WNW 06:27:52 10° SW visible
07 Dec 6.7 05:55:06 10° N 05:58:40 50° WNW 06:02:14 10° SSW visible
08 Dec 6.8 05:28:40 10° NNE 05:32:20 71° E 05:36:01 10° S visible
08 Dec 9.6 17:37:26 10° SW 17:39:56 19° W 17:42:28 10° NW visible
09 Dec 8.5 05:02:35 10° NNE 05:05:54 31° E 05:09:12 10° SSE visible
09 Dec 8.2 06:36:36 10° NNW 06:38:58 16° WNW 06:41:20 10° WSW visible
09 Dec 8.0 17:10:08 10° S 17:13:25 41° W 17:16:46 10° NNW visible
10 Dec 9.7 04:37:09 10° NE 04:39:22 15° E 04:41:33 10° SE visible
10 Dec 7.3 06:09:26 10° N 06:12:46 33° WNW 06:16:05 10° SW visible
11 Dec 6.5 05:42:46 10° N 05:46:27 74° WNW 05:50:08 10° SSW visible
11 Dec 9.9 17:52:33 10° WSW 17:54:08 13° W 17:55:43 10° WNW visible
